Weather History for Falfurrias, TX

Change the Weather History Date:

Thursday, March 21, 2013

  Actual Average (KNQI) Record (KNQI)
Temperature  
Mean Temperature 69 °F -  
Max Temperature 83 °F 74 °F 86 °F (1997)
Min Temperature 56 °F 56 °F 39 °F (2001)
Cooling Degree Days 4    
Growing Degree Days 19 (Base 50)    
Moisture  
Dew Point 61 °F    
Average Humidity 72    
Maximum Humidity 94    
Minimum Humidity 50    
Precipitation  
Precipitation 0.00 in - - ()
Sea Level Pressure  
Sea Level Pressure 29.82 in    
Wind  
Wind Speed 5 mph (SE)    
Max Wind Speed 17 mph    
Max Gust Speed 23 mph    
Visibility 9 miles    
Events      
Averages and records for this station are not official NWS values.
T = Trace of Precipitation, MM = Missing Value Source: NWS Daily Summary

Daily Weather History Graph

Daily Weather History Graph

Search for Another Location

Airport:

Trip Planner

Search our weather history database for the weather conditions in past years. The results will help you decide how hot, cold, wet, or windy it might be!

Date:

Astronomy

Mar. 21, 2013 Rise Set
Actual Time 7:34 AM CDT 7:44 PM CDT
Civil Twilight 7:11 AM CDT 8:07 PM CDT
Nautical Twilight 6:44 AM CDT 8:34 PM CDT
Astronomical Twilight 6:17 AM CDT 9:02 PM CDT
Moon 2:40 PM CDT (3/21) 3:31 AM CDT (3/21)
Length of Visible Light 12h 56m
Length of Day
12h 09m
Waxing Gibbous, 69% of the Moon is Illuminated
Mar 21
Waxing Gibbous
Mar 27
Full
Apr 2
Last Quarter
Apr 10
New
Apr 18
First Quarter

Hourly Weather History & Observations

Time (CDT) Temp. Heat Index Dew Point Humidity Pressure Visibility Wind Dir Wind Speed Gust Speed Precip Events Conditions
12:15 AM 63.7 °F - 57.9 °F 81% 30.06 in 10.0 mi Calm Calm - N/A   Clear
12:35 AM 63.0 °F - 57.4 °F 82% 30.05 in 10.0 mi Calm Calm - N/A   Clear
12:55 AM 62.1 °F - 56.5 °F 82% 30.03 in 10.0 mi Calm Calm - N/A   Scattered Clouds
1:15 AM 61.9 °F - 56.5 °F 82% 30.03 in 10.0 mi Calm Calm - N/A   Mostly Cloudy
1:35 AM 63.0 °F - 57.0 °F 81% 30.02 in 10.0 mi Calm Calm - N/A   Overcast
1:55 AM 62.8 °F - 57.7 °F 84% 30.00 in 10.0 mi Calm Calm - N/A   Scattered Clouds
2:15 AM 61.7 °F - 57.2 °F 85% 29.99 in 10.0 mi Calm Calm - N/A   Clear
2:35 AM 61.5 °F - 57.0 °F 85% 30.00 in 10.0 mi Calm Calm - N/A   Clear
2:55 AM 61.2 °F - 57.2 °F 87% 29.99 in 10.0 mi Calm Calm - N/A   Scattered Clouds
3:35 AM 59.4 °F - 55.2 °F 86% 29.96 in 10.0 mi Calm Calm - N/A   Scattered Clouds
3:55 AM 59.9 °F - 56.7 °F 89% 29.96 in 10.0 mi Calm Calm - N/A   Mostly Cloudy
4:15 AM 61.3 °F - 57.4 °F 87% 29.95 in 10.0 mi Calm Calm - N/A   Overcast
4:35 AM 59.9 °F - 56.1 °F 87% 29.93 in 10.0 mi ENE 3.5 mph - N/A   Scattered Clouds
4:55 AM 59.2 °F - 55.9 °F 89% 29.93 in 10.0 mi Calm Calm - N/A   Clear
5:15 AM 59.2 °F - 56.1 °F 90% 29.93 in 10.0 mi Calm Calm - N/A   Clear
5:35 AM 58.1 °F - 55.2 °F 90% 29.92 in 10.0 mi ENE 3.5 mph - N/A   Clear
5:55 AM 57.6 °F - 54.9 °F 91% 29.91 in 10.0 mi ENE 3.5 mph - N/A   Clear
6:15 AM 57.6 °F - 55.0 °F 91% 29.91 in 10.0 mi Calm Calm - N/A   Clear
6:35 AM 57.4 °F - 55.2 °F 92% 29.91 in 10.0 mi East 3.5 mph - N/A   Clear
6:55 AM 56.7 °F - 54.5 °F 92% 29.92 in 10.0 mi NE 3.5 mph - N/A   Clear
7:15 AM 56.7 °F - 54.7 °F 93% 29.91 in 7.0 mi ENE 3.5 mph - N/A   Clear
7:35 AM 56.5 °F - 54.7 °F 94% 29.92 in 7.0 mi Calm Calm - N/A   Clear
7:55 AM 57.2 °F - 55.6 °F 94% 29.93 in 7.0 mi Calm Calm - N/A   Clear
8:15 AM 56.8 °F - 55.0 °F 94% 29.92 in 7.0 mi Calm Calm - N/A   Clear
8:35 AM 58.8 °F - 56.5 °F 92% 29.92 in 10.0 mi Calm Calm - N/A   Clear
8:55 AM 61.3 °F - 58.1 °F 89% 29.93 in 10.0 mi Calm Calm - N/A   Scattered Clouds
9:15 AM 63.5 °F - 58.8 °F 85% 29.92 in 10.0 mi SE 3.5 mph - N/A   Overcast
9:35 AM 67.3 °F - 60.3 °F 78% 29.91 in 10.0 mi SE 6.9 mph - N/A   Mostly Cloudy
9:55 AM 69.3 °F - 61.0 °F 75% 29.91 in 10.0 mi SE 8.1 mph - N/A   Overcast
10:15 AM 70.7 °F - 61.2 °F 72% 29.90 in 10.0 mi SE 10.4 mph - N/A   Overcast
10:35 AM 71.6 °F - 61.2 °F 70% 29.90 in 10.0 mi SE 10.4 mph 17.3 mph N/A   Overcast
10:55 AM 72.5 °F - 61.2 °F 67% 29.89 in 7.0 mi SE 11.5 mph - N/A   Overcast
11:15 AM 73.4 °F - 61.5 °F 66% 29.88 in 10.0 mi SSE 13.8 mph 17.3 mph N/A   Overcast
11:35 AM 74.1 °F - 61.5 °F 65% 29.88 in 10.0 mi SSE 11.5 mph - N/A   Overcast
11:55 AM 75.2 °F - 61.7 °F 63% 29.87 in 5.0 mi SE 15.0 mph - N/A   Overcast
12:15 PM 75.4 °F - 61.7 °F 62% 29.86 in 10.0 mi SSE 12.7 mph - N/A   Overcast
12:35 PM 75.2 °F - 61.9 °F 63% 29.85 in 10.0 mi SSE 10.4 mph - N/A   Overcast
12:55 PM 76.8 °F - 61.9 °F 60% 29.84 in 10.0 mi SSE 10.4 mph - N/A   Overcast
1:15 PM 77.2 °F - 61.7 °F 59% 29.83 in 7.0 mi SSE 10.4 mph - N/A   Overcast
1:35 PM 77.4 °F - 61.7 °F 58% 29.81 in 10.0 mi SSE 9.2 mph - N/A   Overcast
1:55 PM 77.9 °F - 61.9 °F 58% 29.79 in 10.0 mi SSE 15.0 mph 18.4 mph N/A   Overcast
2:15 PM 78.8 °F - 61.9 °F 56% 29.77 in 7.0 mi SSE 10.4 mph 17.3 mph N/A   Overcast
2:35 PM 80.2 °F 81.4 °F 62.1 °F 54% 29.75 in 10.0 mi SSE 15.0 mph 20.7 mph N/A   Overcast
2:55 PM 81.5 °F 82.5 °F 62.1 °F 52% 29.74 in 7.0 mi South 10.4 mph 18.4 mph N/A   Overcast
3:15 PM 80.6 °F 81.7 °F 61.9 °F 53% 29.73 in 10.0 mi SE 16.1 mph - N/A   Overcast
3:35 PM 82.6 °F 83.4 °F 62.1 °F 50% 29.72 in 10.0 mi SSE 17.3 mph 23.0 mph N/A   Overcast
3:55 PM 81.0 °F 82.1 °F 62.2 °F 53% 29.70 in 7.0 mi SSE 12.7 mph 19.6 mph N/A   Overcast
4:15 PM 81.1 °F 82.1 °F 62.1 °F 52% 29.69 in 10.0 mi SE 15.0 mph 18.4 mph N/A   Overcast
4:35 PM 82.6 °F 83.4 °F 62.4 °F 50% 29.68 in 10.0 mi SSE 16.1 mph 21.9 mph N/A   Overcast
4:55 PM 81.5 °F 82.7 °F 63.0 °F 53% 29.68 in 7.0 mi SSE 11.5 mph - N/A   Overcast
5:15 PM 81.9 °F 83.1 °F 63.3 °F 53% 29.66 in 7.0 mi SSE 12.7 mph - N/A   Overcast
5:35 PM 82.6 °F 83.8 °F 63.5 °F 52% 29.66 in 10.0 mi SSE 15.0 mph 21.9 mph N/A   Overcast
5:55 PM 81.9 °F 83.2 °F 63.7 °F 54% 29.65 in 7.0 mi SSE 13.8 mph 18.4 mph N/A   Mostly Cloudy
6:15 PM 82.0 °F 83.4 °F 63.7 °F 54% 29.65 in 10.0 mi SSE 16.1 mph 19.6 mph N/A   Overcast
6:35 PM 81.7 °F 83.2 °F 63.9 °F 55% 29.66 in 7.0 mi SSE 10.4 mph - N/A   Overcast
6:55 PM 81.5 °F 82.9 °F 64.0 °F 55% 29.65 in 7.0 mi SSE 11.5 mph - N/A   Overcast
7:15 PM 80.6 °F 82.3 °F 64.4 °F 58% 29.64 in 7.0 mi SSE 17.3 mph - N/A   Mostly Cloudy
7:35 PM 79.9 °F - 64.6 °F 59% 29.65 in 7.0 mi SSE 12.7 mph - N/A   Overcast
7:55 PM 78.1 °F - 65.8 °F 66% 29.66 in 10.0 mi SE 10.4 mph 16.1 mph N/A   Overcast
8:15 PM 77.4 °F - 66.2 °F 68% 29.66 in 10.0 mi ESE 9.2 mph - N/A   Overcast
8:35 PM 76.6 °F - 66.4 °F 70% 29.66 in 10.0 mi SE 9.2 mph - N/A   Overcast
8:55 PM 76.6 °F - 66.4 °F 70% 29.67 in 10.0 mi ESE 6.9 mph - N/A   Overcast
9:15 PM 76.3 °F - 66.6 °F 72% 29.67 in 10.0 mi SE 8.1 mph - N/A   Overcast
9:35 PM 76.3 °F - 66.6 °F 72% 29.70 in 10.0 mi SE 4.6 mph - N/A   Overcast
9:55 PM 77.2 °F - 66.7 °F 70% 29.69 in 10.0 mi SSE 12.7 mph - N/A   Overcast
10:15 PM 77.0 °F - 67.1 °F 71% 29.69 in 7.0 mi SSE 13.8 mph - N/A   Overcast
10:35 PM 76.5 °F - 67.1 °F 73% 29.70 in 7.0 mi SSE 11.5 mph - N/A   Overcast
10:55 PM 75.6 °F - 67.1 °F 75% 29.69 in 7.0 mi SSE 11.5 mph - N/A   Scattered Clouds
11:15 PM 75.6 °F - 67.3 °F 75% 29.69 in 10.0 mi SSE 13.8 mph - N/A   Scattered Clouds
11:35 PM 75.2 °F - 67.3 °F 76% 29.69 in 10.0 mi SSE 10.4 mph 16.1 mph N/A   Clear
11:55 PM 74.7 °F - 67.3 °F 78% 29.69 in 10.0 mi SSE 9.2 mph - N/A   Scattered Clouds